Vertical_Velocity
2 -0 -1 -3 -1 -2 -1 -1 -0 0 2 0 -0 -1 -2 -1 -1 -0 -1 -0 1 0 -1 -1 -0 -0 -1 -1 0 -1 -1 0 0 0 1 1 0 1 1 -0 -2 -1 -0
0 1 -0 -3 -4 -1 -2 -1 -1 -0 -0 0 -0 0 -1 -2 -0 -1 -0 -1 1 1 0 -0 -1 -1 0 -0 -0 0 -1 -1 -0 1 -0 0 -0 -1 -0 0 0 -0 -1
2 2 1 0 -1 -3 -2 -1 -0 0 -1 -1 2 0 0 -2 -1 -0 -1 -0 -0 -0 0 -0 -0 -1 -1 -1 -0 0 1 0 -0 -0 -0 1 1 1 1 0 -1 -3 -2
-0 -1 1 1 2 0 -4 1 -0 1 0 0 -1 1 1 0 -2 -2 -0 -1 2 -2 2 -0 -0 -1 -1 -1 0 -0 -0 0 1 1 0 0 0 -0 0 1 1 0 -2
-1 0 -1 0 -0 2 1 -0 -0 1 1 1 1 1 1 1 1 -0 0 -1 -1 1 2 -1 -1 0 -0 -1 -1 -1 0 -0 -1 -0 1 0 -1 -0 -1 -1 -1 -1 -1
-1 1 -0 -2 -1 -1 -1 -0 -1 0 2 2 -1 1 -1 -1 1 0 -0 -0 -1 -1 2 0 -2 -1 -1 0 0 -1 -1 -1 1 -0 -0 -0 0 -1 -0 -0 -0 -1 -1
2 1 1 -0 1 -1 -1 0 -1 -1 -3 1 3 1 -1 -1 -2 1 -0 -1 0 -0 -1 1 1 -1 -2 -1 1 1 -2 -0 -1 -1 -0 -0 0 -0 -0 -1 -1 -1 -1
-1 2 -4 1 -2 1 -1 -1 -2 0 1 -2 -3 -0 -1 -1 -0 -1 1 0 -0 0 2 -1 1 0 -2 -2 -0 2 0 -1 -0 -0 -0 -1 0 -0 -0 -0 -2 -0 -1
4 -0 -1 0 1 -1 3 -0 1 0 0 -0 -0 -1 -2 1 -0 -0 -2 0 -0 1 1 1 -1 0 0 -2 -3 -0 -0 1 -1 -1 -1 -1 -0 1 0 1 2 0 0
1 -0 -1 -1 1 2 -0 0 -0 -2 -0 -1 -1 -0 -1 0 -2 -0 -0 -2 0 -1 -1 -0 2 -0 -0 -0 -1 -1 1 -1 -0 -0 -1 -1 -1 -1 -0 -1 -1 -0 -0
2 4 1 0 2 2 3 -2 -3 -2 0 -0 1 0 -0 1 -3 1 2 -3 0 -1 -1 -1 1 2 1 -1 -1 -2 -1 0 0 -0 -0 0 0 0 1 1 0 1 -1
-1 2 5 5 2 0 -2 -2 -2 -4 -6 -1 -0 0 -2 1 -0 -0 -1 -1 -2 -1 -0 3 0 1 1 1 -1 -0 1 0 0 0 0 0 0 -0 0 -1 0 -1 1
0 2 1 1 5 -2 -1 1 -1 -1 -2 -2 -2 -1 -1 -1 -0 -1 -1 1 -2 -1 -0 2 3 -1 -1 2 1 -2 -1 1 0 0 -0 -0 -0 1 -0 -1 1 1 1
0 -0 3 2 3 0 0 -0 2 1 1 1 -2 -2 -1 0 -1 -0 1 -0 -0 1 -2 1 2 0 1 -0 0 0 -1 -0 1 1 -0 1 -0 -1 -2 -0 1 -1 1
4 -0 -2 -3 5 -1 2 3 2 2 1 -0 -1 -0 2 -1 0 -2 1 0 1 -0 -0 -2 1 2 1 0 1 -0 -1 -1 0 2 -0 -0 0 0 0 0 -2 1 -0
-2 2 -3 4 1 1 2 4 3 3 0 2 1 1 -1 -0 1 1 -0 0 -2 1 1 -2 -3 -1 0 1 1 1 0 -1 -0 1 -0 -1 0 1 -1 1 1 1 -1
0 -2 5 6 2 5 2 -1 1 -0 -0 1 1 0 1 2 -3 -2 -1 -2 0 -1 0 2 -3 -2 2 4 5 1 -0 2 1 0 1 1 0 1 -2 -1 -1 -1 1
-1 4 0 2 4 2 2 1 -2 -2 -0 1 0 -2 0 0 -0 -0 -1 0 -2 4 17 5 3 26 0 4 1 2 -0 1 2 -0 1 1 1 0 -1 0 -1 0 1
-0 -1 3 1 6 0 -2 -0 -4 -1 -0 -2 1 -4 -1 -1 -1 1 1 -0 -0 0 6 27 4 -1 33 -5 1 3 0 -2 -1 -0 -1 -0 3 0 -0 0 1 -2 0
-3 0 -0 5 3 2 3 -3 1 2 2 -4 2 5 -4 -1 -1 -3 -0 1 -0 -5 -5 -2 -7 15 16 12 -7 -0 3 0 -0 2 0 1 2 -0 -0 -0 1 1 1
-2 0 -0 1 1 0 1 -2 -4 6 -2 1 1 -0 -0 -1 2 -0 1 -2 -1 1 1 6 10 -7 3 13 -1 1 3 -4 -0 1 -2 -0 2 1 5 1 -1 0 0
0 -1 -1 5 -1 2 -4 -3 1 -3 0 3 2 2 -2 -3 -5 3 -6 -4 -2 -0 1 0 -10 6 28 -5 7 -3 1 -2 5 1 -1 1 2 2 -1 -0 -2 -2 -3
1 2 3 -2 -1 -2 -4 -2 -2 -2 -1 0 -1 2 -2 -2 -3 -2 4 -4 -1 -0 6 -5 24 -3 8 -1 0 1 -4 9 -4 -5 1 1 -0 2 0 -4 -2 -0 -1
1 5 0 -1 -1 -1 -1 -2 -3 -3 -2 -1 2 -4 -4 -3 -3 1 0 -0 17 3 -2 9 15 9 5 1 -2 3 3 4 -1 -4 -3 0 -1 3 -5 -4 -2 -2 5
-1 -1 -0 -1 2 1 -2 -1 -3 -4 1 -0 -2 2 0 0 1 1 10 5 5 5 2 7 13 7 8 3 -4 1 -3 -4 2 3 7 6 -1 1 2 4 1 1 2
1 -1 0 0 -0 -1 -2 -1 0 0 4 -1 -2 -4 -0 1 7 10 0 6 5 6 12 17 1 6 11 5 5 8 6 4 -2 -2 -3 1 1 1 3 3 -0 1 1
Height
5857 5857 5858 5859 5861 5863 5867 5869 5870 5872 5874 5875 5876 5877 5878 5878 5878 5879 5880 5880 5880 5881 5881 5883 5883 5884 5884 5883 5882 5881 5881 5881 5880 5880 5880 5881 5881 5880 5880 5879 5879 5878 5877
5853 5854 5855 5856 5857 5859 5861 5864 5867 5869 5871 5872 5873 5874 5876 5876 5877 5877 5878 5879 5880 5880 5880 5881 5882 5883 5883 5883 5882 5881 5880 5880 5880 5880 5879 5880 5880 5879 5879 5879 5878 5878 5877
5850 5851 5852 5852 5853 5854 5856 5859 5862 5864 5866 5869 5870 5872 5873 5874 5875 5876 5876 5877 5878 5879 5880 5880 5880 5881 5882 5882 5882 5881 5880 5879 5879 5879 5879 5879 5879 5879 5878 5878 5878 5877 5876
5845 5847 5848 5849 5850 5851 5852 5854 5856 5859 5862 5864 5866 5868 5869 5871 5872 5873 5874 5874 5875 5876 5878 5878 5878 5879 5880 5881 5881 5881 5880 5879 5879 5878 5878 5878 5878 5877 5877 5876 5876 5876 5875
5841 5842 5844 5845 5846 5847 5848 5851 5852 5854 5857 5859 5862 5864 5866 5867 5868 5869 5871 5872 5873 5874 5875 5876 5877 5877 5877 5879 5880 5880 5879 5878 5878 5877 5877 5877 5877 5876 5876 5875 5875 5874 5873
5834 5836 5838 5840 5842 5843 5845 5845 5847 5849 5851 5853 5856 5859 5861 5863 5864 5866 5867 5869 5871 5871 5873 5873 5874 5875 5875 5876 5877 5878 5878 5877 5877 5876 5875 5875 5875 5875 5874 5874 5873 5872 5871
5828 5830 5832 5835 5837 5838 5840 5841 5842 5844 5845 5847 5848 5851 5855 5858 5859 5863 5864 5865 5867 5869 5870 5871 5871 5871 5872 5873 5874 5875 5875 5875 5875 5875 5874 5873 5873 5872 5872 5871 5871 5870 5870
5821 5822 5825 5827 5830 5833 5835 5836 5837 5838 5839 5840 5842 5844 5846 5850 5853 5856 5859 5861 5863 5864 5866 5868 5869 5868 5869 5870 5871 5871 5872 5872 5872 5872 5872 5871 5871 5870 5870 5869 5868 5867 5867
5814 5815 5818 5821 5824 5826 5829 5830 5832 5832 5833 5834 5836 5838 5840 5842 5845 5848 5851 5855 5858 5859 5861 5863 5865 5866 5865 5865 5867 5868 5868 5868 5869 5869 5869 5869 5869 5868 5868 5867 5867 5865 5864
5807 5809 5811 5815 5816 5818 5821 5823 5824 5825 5826 5828 5829 5831 5833 5836 5838 5840 5843 5846 5850 5853 5855 5857 5859 5861 5862 5862 5861 5863 5864 5864 5864 5864 5865 5865 5865 5865 5865 5865 5864 5864 5863
5799 5803 5805 5806 5809 5811 5813 5814 5815 5817 5820 5821 5822 5824 5826 5829 5830 5832 5835 5837 5841 5845 5849 5851 5853 5854 5856 5858 5858 5858 5859 5859 5859 5860 5861 5861 5861 5861 5862 5861 5861 5860 5860
5788 5793 5797 5798 5800 5802 5804 5804 5808 5810 5812 5814 5816 5817 5819 5821 5822 5824 5827 5830 5832 5836 5840 5844 5846 5848 5850 5850 5852 5853 5853 5855 5855 5855 5856 5856 5856 5857 5857 5858 5857 5857 5856
5775 5780 5784 5788 5791 5793 5794 5797 5800 5802 5805 5807 5809 5810 5811 5813 5814 5816 5819 5821 5824 5829 5832 5836 5838 5841 5842 5844 5845 5847 5848 5849 5850 5850 5850 5851 5852 5853 5853 5853 5853 5853 5852
5763 5768 5772 5776 5779 5782 5784 5787 5791 5793 5796 5799 5800 5803 5804 5804 5806 5808 5810 5813 5816 5819 5822 5825 5829 5833 5835 5837 5838 5840 5841 5842 5843 5845 5845 5846 5847 5847 5847 5847 5848 5848 5848
5750 5755 5760 5763 5768 5772 5776 5779 5781 5784 5787 5789 5791 5793 5796 5798 5799 5800 5801 5804 5807 5811 5814 5816 5819 5822 5825 5829 5831 5832 5834 5836 5837 5838 5840 5840 5841 5842 5842 5842 5841 5841 5841
5737 5742 5747 5753 5758 5762 5767 5771 5773 5775 5777 5779 5781 5783 5786 5789 5791 5790 5792 5796 5797 5801 5805 5807 5809 5812 5815 5818 5822 5824 5825 5827 5830 5831 5833 5834 5834 5835 5835 5835 5835 5835 5834
5725 5728 5735 5741 5747 5752 5756 5758 5760 5761 5765 5768 5771 5773 5776 5778 5780 5782 5784 5787 5789 5793 5794 5798 5800 5803 5806 5809 5813 5816 5817 5819 5821 5824 5825 5826 5827 5828 5828 5828 5828 5828 5827
5711 5716 5720 5727 5733 5739 5745 5748 5749 5751 5754 5756 5760 5762 5764 5767 5769 5770 5773 5775 5780 5781 5780 5786 5787 5787 5793 5798 5800 5805 5809 5811 5811 5815 5817 5818 5819 5820 5820 5821 5821 5820 5820
5696 5701 5708 5714 5721 5727 5731 5735 5738 5740 5744 5746 5749 5751 5754 5756 5758 5759 5761 5764 5766 5769 5771 5775 5775 5781 5783 5786 5791 5795 5799 5801 5804 5806 5808 5809 5809 5810 5811 5813 5813 5813 5813
5681 5687 5693 5702 5709 5714 5719 5724 5727 5731 5735 5737 5739 5741 5744 5745 5746 5746 5749 5752 5754 5758 5761 5766 5769 5770 5774 5776 5779 5784 5790 5790 5794 5797 5798 5800 5800 5802 5802 5803 5804 5805 5805
5668 5675 5683 5691 5697 5703 5705 5711 5715 5720 5724 5727 5729 5732 5733 5736 5736 5736 5735 5739 5742 5746 5750 5755 5759 5761 5765 5765 5768 5773 5780 5780 5784 5786 5788 5790 5792 5792 5793 5794 5794 5796 5795
5656 5664 5673 5679 5684 5687 5691 5698 5703 5708 5713 5715 5718 5721 5722 5724 5725 5725 5724 5725 5727 5732 5738 5743 5747 5753 5751 5753 5762 5762 5766 5770 5774 5774 5778 5779 5780 5782 5784 5784 5785 5785 5784
5647 5655 5662 5666 5673 5679 5684 5689 5694 5699 5702 5705 5707 5710 5711 5712 5713 5715 5714 5713 5717 5721 5727 5730 5734 5741 5744 5744 5747 5751 5753 5759 5759 5762 5766 5768 5769 5771 5773 5772 5773 5773 5772
5640 5647 5653 5659 5664 5671 5675 5679 5684 5689 5692 5694 5697 5700 5700 5701 5701 5702 5704 5708 5713 5713 5715 5722 5725 5728 5729 5731 5733 5738 5742 5745 5748 5750 5752 5755 5756 5758 5759 5759 5760 5761 5762
5635 5640 5646 5652 5658 5663 5666 5672 5675 5679 5683 5685 5687 5688 5689 5689 5691 5693 5697 5700 5703 5705 5707 5709 5711 5716 5718 5720 5722 5725 5728 5732 5735 5738 5741 5742 5744 5746 5746 5747 5749 5750 5752
5632 5637 5643 5648 5653 5658 5660 5663 5666 5669 5673 5677 5678 5680 5681 5682 5683 5687 5689 5690 5693 5694 5696 5697 5697 5702 5706 5708 5712 5714 5717 5720 5724 5726 5727 5730 5732 5736 5738 5738 5740 5742 5742